Flag for Canada Weather past 2 weeks in Abbotsford, British Columbia, Canada

Now
84 °F

Passing clouds.


Feels Like: 84 °F
Forecast: 69 / 96 °F
Wind: 10 mph from Southwest

Location: Abbotsford

Current Time: Jul 4, 2015 at 5:44:22 PM

Latest Report: Jul 4, 2015 at 5:00 PM


Visibility: 30 mi

Pressure: 29.78 "Hg

Humidity: 43%

Dew point: 59 °F

Location of AbbotsfordLocation

Historic Weather in Abbotsford — Graph

°F

Abbotsford temperature yesterday

Maximum temperature yesterday: 86 °F (at 4:00 PM)
Minimum temperature yesterday: 63 °F (at 4:00 AM)
Average temperature yesterday: 73 °F

Past Weeks' High & Low Weather Summary

 TemperatureHumidityPressure
High90 °F (Jun 27, 4:00 PM)94% (Jun 20, 4:00 AM)30.16 "Hg (Jun 20, 4:00 AM)
Low50 °F (Jun 20, 4:00 AM)30% (Jun 21, 12:00 PM)29.79 "Hg (Jul 4, 4:00 PM)
Average71 °F60%30.01 "Hg
* Reported Jun 19 4:00 PM — Jul 4 4:00 PM, Abbotsford, Weather by CustomWeather, © 2015

Note: Actual official high and low records may vary slightly from our data, if they occured in-between our weather recording intervals... More about our weather records

Advertising

Abbotsford weather history for previous 24 hours

 ConditionsComfort  
Time TempWeatherWind HumidityBarometerVisibility
4:00 PM
Sat, Jul 4
86 °FPassing clouds.12 mph40%29.79 "Hg30 mi
3:00 PM86 °FPassing clouds.13 mph40%29.81 "Hg30 mi
2:00 PM84 °FSunny.10 mph43%29.82 "Hg30 mi
1:00 PM81 °FSunny.9 mph48%29.83 "Hg30 mi
12:00 PM79 °FPassing clouds.9 mph48%29.85 "Hg30 mi
11:00 AM77 °FPassing clouds.9 mph51%29.86 "Hg30 mi
10:00 AM73 °FPassing clouds.9 mph53%29.87 "Hg30 mi
9:00 AM72 °FPassing clouds.8 mph57%29.88 "Hg30 mi
8:00 AM68 °FPassing clouds.7 mph60%29.88 "Hg30 mi
7:00 AM66 °FPassing clouds.3 mph60%29.88 "Hg30 mi
6:00 AM61 °FPassing clouds.No wind68%29.87 "Hg30 mi
5:00 AM61 °FPassing clouds.3 mph68%29.88 "Hg30 mi
4:00 AM61 °FPassing clouds.7 mph68%29.87 "Hg30 mi
3:00 AM66 °FClear.7 mph56%29.86 "Hg30 mi
2:00 AM66 °FClear.6 mph60%29.87 "Hg30 mi
1:00 AM68 °FClear.5 mph56%29.88 "Hg15 mi
12:00 AM68 °FClear.6 mph56%29.87 "Hg15 mi
11:00 PM
Fri, Jul 3
68 °FClear.5 mph60%29.87 "Hg15 mi
10:00 PM68 °FSunny.5 mph69%29.86 "Hg30 mi
9:00 PM73 °FSunny.7 mph53%29.85 "Hg30 mi
8:00 PM79 °FPassing clouds.8 mph45%29.84 "Hg30 mi
7:00 PM82 °FSunny.14 mph42%29.85 "Hg30 mi
6:00 PM84 °FSunny.13 mph43%29.85 "Hg30 mi
5:00 PM86 °FSunny.12 mph40%29.86 "Hg30 mi
Weather by CustomWeather, © 2015

See weather overviewHow to use our weather pages